Theta_e
316 316 316 316 316 316 317 317 317 318 318 318 318 318 318 318 318 318 318 317 316 315 314 312 311 311 311 310 309 307 305 306 306 306 305 304 305 304 303 304 305 305 303 303 304 304 304 305 304 304 304 303 303 304 303 303 303 304 303 304 304 304 304
317 316 316 316 317 317 317 318 318 318 318 318 319 319 319 320 319 318 317 316 315 314 312 311 309 309 310 309 306 305 304 304 305 304 304 305 304 304 304 304 305 305 303 303 303 303 304 304 304 304 303 303 304 303 303 303 303 303 303 304 304 304 304
316 317 317 317 317 318 318 318 317 318 318 318 319 320 320 320 318 317 317 315 313 312 311 310 308 306 308 306 304 304 303 303 305 304 304 304 304 304 304 304 305 305 303 303 303 303 304 304 304 303 303 303 304 303 303 303 303 303 303 303 303 303 303
317 317 317 318 317 317 318 318 318 318 318 318 319 320 320 319 317 316 316 314 312 310 309 309 306 304 305 304 303 304 303 302 304 304 303 304 304 304 304 304 305 304 302 302 303 303 304 304 304 304 303 303 303 302 302 302 303 303 302 302 303 303 302
317 318 318 317 317 318 318 318 318 318 318 319 319 319 319 318 316 315 314 313 311 309 308 308 306 303 303 303 302 304 303 302 303 303 303 303 304 304 304 303 304 303 301 300 302 302 303 303 303 303 303 302 302 302 302 302 302 302 302 302 302 301 301
318 317 317 317 317 317 318 318 318 319 319 320 320 319 318 317 315 314 313 311 310 308 307 306 305 303 303 302 302 303 303 302 302 303 302 303 303 303 303 302 302 302 300 300 301 301 301 302 302 302 302 301 301 301 301 301 301 301 301 301 301 300 300
319 318 317 317 317 318 318 318 319 319 319 321 320 318 317 316 314 313 312 310 309 307 305 305 304 303 303 302 302 303 303 303 302 302 301 302 302 302 303 301 301 301 300 300 302 301 301 301 301 301 301 301 301 301 300 300 300 301 300 300 299 299 299
318 318 319 318 318 318 319 319 319 320 321 321 320 318 316 315 314 312 310 309 307 305 303 303 303 303 303 302 302 302 302 303 302 302 301 301 301 301 301 301 300 301 300 300 302 301 300 301 300 300 300 300 300 300 300 300 300 300 299 299 298 298 298
319 319 319 319 318 319 319 320 320 321 322 321 319 317 315 314 313 312 310 308 306 304 303 302 302 302 302 302 302 301 302 302 302 302 301 300 300 300 300 301 300 300 299 300 301 300 300 300 299 299 299 299 299 299 299 299 299 298 298 297 297 297 297
321 320 320 320 320 320 320 320 321 323 323 320 318 316 314 313 312 311 309 307 304 303 303 302 301 301 302 302 302 301 301 300 301 301 300 299 299 299 300 300 299 299 299 299 299 299 299 299 298 298 297 298 298 298 298 298 298 297 297 296 296 296 296
321 321 321 321 321 321 321 322 324 324 321 319 317 315 314 312 311 309 308 306 303 302 303 302 302 301 301 301 301 300 300 300 299 299 299 299 299 298 299 299 298 298 299 298 298 298 298 297 297 297 296 296 297 297 297 297 297 296 296 296 295 295 295
322 322 322 321 321 322 322 323 324 322 319 318 316 315 313 311 309 308 306 304 302 302 302 302 302 302 301 301 300 300 299 299 299 298 298 298 298 298 298 298 298 298 298 297 297 297 297 297 296 296 296 296 296 296 296 296 296 295 295 295 295 295 295
323 322 322 322 323 322 323 324 324 321 318 316 315 313 311 309 308 306 304 302 302 301 301 301 301 301 301 300 300 299 299 299 298 298 298 297 297 297 298 298 297 298 298 296 296 296 296 296 296 295 295 295 295 295 295 295 295 295 295 294 294 294 294
324 323 322 323 323 323 324 324 322 319 317 315 313 312 310 308 307 304 303 302 302 301 300 300 300 300 300 300 300 299 299 299 298 298 297 297 297 297 297 297 297 298 298 296 295 295 295 295 295 295 294 294 294 294 294 295 295 295 294 294 294 294 294
325 325 324 325 325 325 324 322 319 317 315 313 312 311 309 307 305 303 302 302 301 301 300 300 300 300 299 299 300 299 299 299 298 298 297 297 296 297 297 297 297 297 297 295 294 294 295 295 294 294 294 293 293 294 294 294 294 294 294 294 294 294 294
326 326 326 326 326 325 323 320 317 316 314 312 311 309 308 306 304 302 302 301 301 300 300 300 300 300 299 299 299 299 299 298 298 297 297 297 296 296 297 297 297 297 296 294 293 293 294 294 293 293 293 292 293 293 293 293 294 294 294 294 294 294 294
326 325 327 328 326 323 320 318 316 314 312 311 310 308 307 305 303 302 301 300 300 300 300 300 300 300 299 299 299 299 298 298 298 297 297 297 297 296 296 296 296 297 296 294 293 293 293 293 293 292 292 291 292 292 292 293 293 294 294 294 294 294 294
326 326 328 328 324 321 318 316 315 313 311 310 309 307 306 304 303 302 301 301 301 301 301 301 300 300 299 299 299 298 298 298 297 297 297 297 297 297 296 296 296 297 296 295 294 293 292 293 292 291 290 290 290 291 292 293 293 293 293 293 293 293 293
327 328 329 326 322 319 317 315 313 312 311 309 308 306 305 303 302 301 301 301 300 300 299 299 299 300 300 300 299 298 298 297 297 297 297 296 296 296 296 295 295 296 296 295 295 294 293 293 292 291 289 289 290 290 291 292 292 293 293 293 293 292 292
328 329 327 323 320 318 316 314 313 311 310 308 307 305 303 302 301 301 301 300 299 298 296 295 295 296 298 299 299 299 297 297 297 297 296 296 296 296 296 295 295 296 296 296 295 294 293 293 291 289 288 288 289 290 291 292 292 292 292 292 292 292 292
329 328 325 322 319 316 315 313 312 310 309 308 306 304 302 301 301 301 301 300 299 296 293 290 290 291 292 295 297 299 298 297 296 297 296 296 296 296 295 294 295 296 296 295 295 293 293 292 289 288 287 287 288 289 290 291 292 292 292 292 292 292 292
329 326 323 320 318 315 313 312 310 309 308 306 305 303 302 301 301 301 301 300 298 294 289 288 289 288 289 290 292 297 299 298 296 296 296 295 295 295 295 294 295 295 296 295 294 293 292 290 287 286 286 287 287 289 290 290 292 292 292 292 291 292 292
327 324 322 318 316 314 312 311 309 308 306 305 303 302 302 301 301 301 300 300 298 293 288 288 288 288 288 288 288 293 298 298 297 296 296 295 295 295 294 294 294 294 295 294 293 293 292 288 285 285 285 286 287 289 290 291 292 292 291 291 291 292 292
326 323 320 317 315 313 312 310 309 307 305 304 303 302 302 302 302 301 301 300 296 291 288 288 288 287 288 288 287 290 296 298 297 297 297 295 295 295 295 294 293 293 294 293 292 293 290 286 284 284 284 285 288 289 290 291 292 292 291 291 291 291 291
324 322 318 316 314 312 311 309 308 306 305 303 302 302 302 302 301 301 301 300 296 290 287 288 288 287 287 287 287 289 293 297 298 297 297 296 295 295 295 294 293 292 293 292 292 292 289 285 284 284 284 286 288 290 290 291 291 291 290 290 290 290 290
323 320 317 315 313 312 310 309 307 306 305 303 302 302 302 301 301 302 301 300 298 292 288 287 287 287 287 287 288 289 292 296 298 298 297 296 296 295 295 295 293 292 292 292 291 291 288 285 284 284 284 286 288 289 290 290 290 289 289 289 289 290 290
321 319 316 314 312 311 310 308 307 306 305 304 303 302 302 301 301 302 301 300 298 293 288 287 288 287 288 287 288 291 294 296 297 299 297 296 296 296 295 295 294 292 292 292 292 290 287 284 284 283 284 286 288 288 289 289 288 287 287 288 289 289 290
319 318 315 313 312 311 310 308 307 306 304 304 303 302 302 302 301 302 301 300 298 292 287 287 287 287 288 287 287 292 296 297 298 299 297 296 296 296 295 295 294 293 292 292 292 289 285 284 283 283 285 287 287 288 289 288 287 286 286 287 288 288 289
318 316 314 313 312 311 310 308 307 305 304 303 303 302 302 301 301 301 301 300 298 294 289 287 287 287 287 287 288 292 297 298 298 297 296 295 295 295 295 295 294 293 292 291 290 287 284 283 283 283 285 286 287 288 288 287 286 286 287 287 288 289 290
317 316 314 313 312 310 309 308 306 305 304 303 303 302 301 301 301 301 302 301 300 298 293 288 287 287 288 287 288 292 297 298 297 295 294 295 295 295 295 295 293 292 291 290 288 286 284 283 283 284 285 286 287 288 288 286 286 286 287 288 289 290 290
316 315 314 313 312 310 309 308 306 305 305 304 303 302 301 301 301 301 301 301 301 301 298 292 287 287 288 287 288 292 296 297 295 294 293 294 295 295 295 294 292 291 291 290 287 285 284 283 284 285 285 286 288 288 287 286 286 287 287 288 289 290 290
316 315 314 313 311 310 309 308 306 305 304 303 302 301 301 301 301 300 301 301 301 301 299 295 290 287 287 287 288 291 295 295 294 292 292 294 295 294 294 293 292 292 291 288 286 285 285 285 285 286 286 287 288 288 286 286 286 287 288 289 289 289 290
316 315 314 312 311 310 309 307 306 305 304 303 302 301 301 301 301 301 300 297 297 299 300 297 293 289 287 287 287 289 293 294 292 290 291 294 295 294 293 292 292 291 290 287 286 286 286 287 287 287 286 287 288 287 287 287 287 288 289 289 289 289 289
316 314 313 312 310 310 308 307 305 305 304 303 301 301 301 302 301 301 299 296 295 298 300 298 294 289 287 287 287 287 289 291 289 287 290 294 295 293 292 292 291 290 289 287 287 288 288 288 288 287 287 287 287 287 287 287 288 288 288 288 288 289 289
315 314 313 311 310 309 308 306 306 305 303 302 301 301 301 302 301 300 300 298 298 299 298 296 292 288 287 287 287 287 287 288 287 287 289 293 295 293 291 291 291 289 288 288 288 289 289 289 289 288 288 288 287 287 288 288 288 288 288 288 288 288 289
315 313 312 311 310 309 307 307 305 304 303 302 302 302 301 301 301 300 299 299 299 299 297 294 291 288 287 287 287 287 287 287 287 287 288 291 293 293 292 291 290 289 288 289 289 289 289 289 289 289 288 288 288 288 288 288 288 288 288 288 288 288 288
314 313 312 311 310 308 307 306 305 303 303 303 302 302 301 300 300 300 299 299 299 299 298 295 293 290 289 288 287 287 288 288 288 288 288 289 291 292 291 289 288 288 290 290 290 290 290 290 290 289 289 289 288 288 289 288 287 287 288 288 288 288 288
Wind_Speed
10 9 10 9 8 7 8 9 10 10 11 11 10 12 12 12 14 14 14 15 15 15 16 16 17 16 15 15 16 17 17 16 17 16 16 18 17 17 18 17 15 15 17 16 13 10 7 6 10 11 14 19 18 18 23 24 23 22 23 23 19 16 17
12 11 9 8 7 7 6 8 9 9 10 10 10 11 11 11 12 13 13 14 15 15 15 15 16 15 14 14 16 16 16 15 15 15 15 16 16 16 17 17 15 14 15 15 15 15 9 7 8 8 13 18 15 18 21 20 20 22 23 21 18 17 17
12 11 9 7 6 6 7 7 7 7 9 9 8 9 9 10 11 12 12 13 14 14 14 14 15 15 14 14 14 14 14 14 14 14 14 15 15 15 16 16 15 14 13 12 13 15 12 9 8 8 13 16 13 18 22 21 21 22 21 21 19 18 20
11 10 9 8 6 6 8 7 5 5 7 8 8 8 7 8 10 11 11 12 13 14 13 13 14 14 14 13 13 12 13 14 13 13 14 14 15 15 15 16 16 14 13 12 13 14 11 8 8 7 11 15 14 17 21 22 23 22 21 21 19 18 21
11 11 10 8 6 7 7 6 5 5 6 7 8 7 7 8 9 10 11 11 12 13 13 12 12 13 12 12 12 11 12 14 13 12 13 14 14 14 15 16 15 13 15 14 14 15 13 12 11 7 10 15 13 15 20 21 21 21 21 21 21 22 24
8 8 8 6 6 7 5 5 6 5 5 6 6 7 7 8 9 10 11 11 11 12 12 11 11 12 12 11 12 11 10 12 13 12 12 13 13 13 14 15 15 13 14 15 14 15 15 15 14 9 11 15 12 13 18 19 19 19 19 20 23 24 24
5 5 4 3 5 5 3 4 4 4 4 5 5 6 7 7 8 9 9 10 10 11 11 10 10 10 11 10 10 11 9 10 11 12 12 12 12 13 12 14 15 13 14 14 13 14 15 15 15 12 11 13 12 13 15 17 18 17 16 20 22 22 24
6 4 2 2 4 4 2 2 3 3 3 4 5 6 6 7 8 8 9 9 9 10 10 10 9 10 10 9 10 11 9 9 10 11 12 12 12 13 12 13 14 13 14 14 13 14 15 14 15 16 14 10 9 10 10 12 16 16 18 21 21 21 24
6 5 3 1 1 1 1 1 3 3 3 4 5 6 5 7 7 7 8 9 9 9 10 10 9 9 9 9 9 10 10 10 9 10 11 11 12 13 12 12 13 13 14 14 14 14 14 14 15 17 17 13 9 7 6 8 10 12 19 21 20 22 24
4 4 4 2 2 3 3 1 0 3 5 5 6 6 6 7 7 6 7 8 9 9 8 9 9 9 9 9 9 9 10 10 9 10 10 10 11 12 12 12 12 13 14 14 14 15 14 15 16 17 18 17 13 9 6 7 7 10 17 21 20 22 24
6 6 6 5 5 5 4 3 3 5 7 6 6 7 7 7 7 6 6 7 8 8 8 8 8 9 9 8 8 9 10 9 9 10 10 10 11 12 13 12 12 13 14 15 15 16 15 15 17 17 17 18 17 13 9 7 8 12 18 21 21 23 26
8 7 8 7 6 5 4 4 6 7 7 7 7 7 7 6 6 6 6 6 7 7 7 7 7 7 8 8 8 9 9 10 10 10 11 10 10 12 12 12 13 13 14 15 16 16 16 16 17 18 18 18 18 17 15 11 8 12 19 20 22 25 26
9 8 8 8 6 5 4 6 9 8 8 8 8 8 7 6 6 6 6 6 6 7 7 7 6 6 7 7 8 9 9 10 10 10 10 11 10 11 12 12 13 14 14 16 17 17 16 17 18 19 19 19 19 19 20 16 9 12 20 21 23 26 26
11 8 7 8 6 4 7 10 10 10 9 9 8 8 8 7 6 6 6 6 6 6 6 6 6 6 6 7 7 8 9 9 9 10 10 11 11 12 12 12 13 14 14 16 17 17 16 17 19 20 19 19 20 19 20 20 13 12 20 23 23 25 26
10 9 7 7 8 8 11 12 11 10 10 9 8 8 7 7 6 6 6 7 6 5 5 5 5 6 6 7 7 7 8 8 9 10 10 11 12 12 12 12 13 13 13 15 17 17 16 18 18 19 19 19 20 20 20 21 18 15 19 24 24 25 25
10 10 8 8 11 12 12 12 11 11 11 10 9 8 7 7 6 6 6 6 6 5 4 4 5 6 6 7 7 7 8 8 9 10 11 11 12 12 12 12 13 13 13 15 16 16 16 17 18 18 19 19 20 21 20 20 20 19 20 22 24 25 25
10 10 9 11 13 13 13 12 12 12 11 11 10 8 7 7 6 6 6 6 5 4 3 4 4 5 6 6 7 7 8 9 9 10 11 11 11 12 12 13 13 12 12 14 15 15 16 16 17 17 19 20 20 21 21 20 21 21 21 21 23 24 24
10 9 11 13 14 13 13 14 13 12 12 11 9 8 7 6 6 6 6 5 5 4 4 4 4 5 6 6 6 7 8 9 9 10 10 11 11 12 12 13 13 12 11 13 13 14 16 16 17 18 20 21 21 21 21 21 21 22 22 22 23 23 23
10 10 14 15 14 14 14 14 13 12 12 11 9 8 7 6 6 6 6 6 5 4 4 3 3 4 5 6 6 7 7 9 9 9 10 11 11 12 12 13 13 11 11 12 12 13 15 16 17 19 21 21 21 21 22 22 21 22 23 23 23 24 24
12 13 15 15 14 14 14 14 13 13 12 11 9 8 8 7 7 7 7 6 5 4 2 2 2 3 3 4 5 6 7 8 9 9 10 10 11 11 12 13 13 12 13 12 11 13 16 16 17 21 22 22 21 22 22 22 21 21 22 22 22 23 23
12 15 16 14 14 14 14 14 14 13 12 11 9 8 8 8 7 7 7 6 5 2 1 2 3 3 3 2 3 5 7 8 9 9 9 10 11 11 12 13 12 13 14 11 11 15 15 15 19 22 23 22 21 21 21 21 22 21 21 21 22 22 23
13 15 15 15 15 15 15 15 14 14 12 11 10 9 9 8 8 8 7 6 3 1 2 4 5 5 5 4 3 4 5 7 8 9 9 10 11 11 11 12 12 14 13 11 13 15 13 17 23 25 24 24 22 22 22 22 21 21 21 21 21 22 22
15 14 14 16 17 16 16 15 14 13 12 11 10 10 9 8 8 8 8 6 2 0 3 5 5 5 5 6 5 3 3 5 8 8 8 10 11 10 11 12 13 14 12 12 15 14 15 23 27 25 25 25 22 23 25 23 21 20 21 20 20 21 20
16 14 15 17 18 17 16 16 14 14 13 12 11 10 9 9 8 8 8 5 2 0 3 4 5 5 5 5 5 3 4 5 7 7 8 9 10 10 11 11 13 14 12 14 16 14 20 28 29 26 26 23 20 22 25 23 22 21 21 20 20 21 19
16 16 17 18 17 17 17 16 15 14 13 12 11 10 10 9 9 8 7 5 2 0 3 3 4 5 5 5 5 3 2 4 6 6 7 8 9 10 10 10 12 13 13 15 15 16 24 31 29 27 26 23 21 21 21 22 22 22 21 20 20 21 20
18 19 19 18 18 18 17 16 15 14 13 13 12 11 10 9 9 8 7 6 3 1 2 3 4 4 5 5 5 4 2 2 4 6 7 8 9 10 10 10 11 12 13 14 15 18 27 31 29 27 26 24 22 21 20 20 20 21 22 21 21 22 23
20 20 19 19 19 18 17 16 16 14 14 13 12 11 10 10 10 8 8 7 4 2 1 3 3 4 5 5 4 3 3 3 3 5 7 8 9 10 10 9 9 11 13 13 15 20 27 29 27 27 26 24 23 23 22 21 21 23 24 22 21 24 26
21 20 20 20 19 18 17 17 16 15 14 13 12 12 11 10 10 9 8 8 6 3 1 2 3 4 4 5 4 2 3 6 7 7 7 9 9 10 10 8 7 10 13 13 16 22 26 26 25 26 25 23 23 23 22 21 23 26 26 25 25 27 30
22 22 21 20 19 18 18 18 16 15 14 13 12 12 11 10 10 9 9 8 6 4 1 2 2 4 4 4 4 2 3 7 9 8 8 10 9 10 10 7 7 10 12 13 18 24 25 23 23 24 23 23 23 23 21 22 25 27 28 28 28 28 29
23 23 22 21 20 19 19 18 16 15 15 14 13 12 11 11 10 9 9 8 7 5 2 2 2 3 4 4 4 1 2 6 8 7 8 9 9 10 9 7 7 11 13 15 20 25 22 20 21 22 22 23 23 23 23 26 29 30 30 30 29 28 28
24 24 23 22 21 20 19 18 16 16 15 14 14 12 11 11 10 10 9 8 8 7 5 2 2 3 3 4 3 1 2 6 8 7 8 8 8 8 7 7 10 12 14 17 22 23 19 17 20 21 22 22 22 23 27 30 32 34 34 32 30 28 27
24 24 23 22 22 21 19 18 17 16 14 14 14 12 12 11 10 10 10 9 9 8 7 5 3 3 3 3 2 1 2 6 7 6 7 8 8 6 5 9 11 11 14 19 21 20 16 16 18 20 21 21 20 24 29 32 34 36 35 33 31 29 28
24 23 23 22 22 21 19 18 17 16 15 14 13 13 12 11 11 11 10 10 10 9 8 7 4 3 3 2 1 1 1 4 6 6 6 7 8 6 6 8 9 11 16 19 18 17 16 15 17 19 21 20 21 25 30 33 33 33 31 30 30 29 28
24 23 23 23 22 20 19 18 18 17 15 14 14 13 13 12 12 12 10 9 9 9 9 9 6 4 3 2 2 2 2 2 5 5 4 5 7 7 7 7 9 13 16 16 15 16 16 16 16 19 21 22 22 26 30 32 31 29 28 28 28 28 28
24 22 22 23 22 20 18 18 17 17 15 15 15 14 13 12 12 11 10 9 10 10 11 11 8 5 4 3 2 2 3 3 4 4 4 5 6 7 8 8 10 14 14 14 15 16 17 16 17 19 21 22 23 26 27 27 26 26 27 28 27 27 27
23 22 23 23 21 20 19 18 17 16 15 15 15 15 13 13 12 12 12 11 11 12 13 12 9 6 4 4 3 2 2 3 4 4 5 5 5 7 9 10 12 14 13 14 15 17 18 17 17 19 21 21 22 23 23 22 23 25 26 26 26 27 27
22 22 23 22 21 20 19 18 17 16 15 16 16 15 14 14 13 13 13 13 13 13 13 13 10 7 4 4 3 2 3 4 4 5 5 5 5 8 11 13 14 14 13 15 16 17 17 16 16 18 19 19 20 21 20 20 23 24 25 25 26 26 26
Wind_Direction
106 95 92 91 88 82 74 68 69 62 50 45 35 32 32 31 35 35 35 36 33 29 27 25 22 19 24 25 23 22 21 21 22 21 16 9 7 6 6 3 360 5 4 1 4 357 336 321 336 344 347 345 339 345 352 344 336 335 328 321 322 324 323
128 121 111 110 111 99 74 61 66 62 50 45 35 32 34 33 37 39 39 37 35 31 25 24 21 18 24 28 25 23 24 24 24 25 20 14 11 6 6 1 357 10 7 359 4 358 346 333 332 338 340 339 340 343 344 337 333 329 320 323 334 333 336
137 132 126 136 141 121 98 74 59 55 52 45 34 34 38 41 42 43 42 37 36 34 26 24 20 18 25 30 28 24 25 26 25 27 23 18 15 10 9 1 354 12 11 356 2 358 349 344 334 329 332 334 338 337 336 336 331 324 325 335 338 335 345
139 138 136 146 147 123 106 92 69 61 56 39 34 41 46 46 46 49 48 38 35 33 28 25 20 20 25 27 28 28 26 27 25 26 23 19 18 13 13 3 354 14 18 357 356 353 346 343 332 322 327 331 332 327 329 332 329 328 334 335 335 342 346
149 143 148 158 139 115 112 109 92 73 53 38 41 54 57 52 47 49 49 41 35 31 29 27 21 23 28 26 28 30 27 26 25 25 22 20 18 14 13 4 357 16 18 358 351 350 345 342 335 323 329 333 329 323 326 328 329 333 334 332 340 346 341
155 141 148 153 121 108 114 103 83 65 50 47 55 63 64 59 52 50 48 44 37 30 30 29 23 25 31 28 27 28 28 25 23 24 21 20 20 15 14 6 1 17 16 357 354 355 350 346 341 332 332 332 324 320 325 328 330 331 329 334 341 340 337
140 135 142 123 108 108 106 87 73 56 47 54 73 75 71 67 62 58 53 45 39 32 33 33 27 27 31 31 28 26 27 25 22 24 21 18 18 14 15 9 4 14 11 358 358 360 354 350 345 337 331 327 320 322 325 329 331 329 330 336 337 336 336
151 168 190 62 88 88 63 70 69 63 66 80 95 88 80 77 69 63 57 48 41 36 36 37 32 29 31 32 31 27 27 24 20 23 20 18 17 12 14 13 7 10 7 359 0 360 354 350 345 339 335 328 322 326 326 330 332 328 329 333 333 335 336
149 170 185 92 85 66 337 25 47 79 116 118 111 104 93 89 80 69 60 50 45 42 40 39 35 32 33 34 32 27 24 22 18 20 19 17 17 12 10 14 13 10 5 2 1 357 353 352 348 344 341 336 331 329 326 331 331 323 327 331 332 332 332
167 180 188 206 229 234 240 256 351 130 134 126 115 108 94 90 85 75 65 51 48 49 43 41 38 36 35 34 32 25 21 21 19 19 19 17 18 13 9 16 18 12 6 4 1 356 354 354 351 348 344 340 337 333 327 329 328 323 327 332 331 328 328
205 206 206 215 221 225 238 225 174 146 135 131 121 110 99 92 87 76 71 61 54 52 46 42 39 36 36 33 30 25 20 21 22 21 18 16 18 14 11 19 21 13 8 6 2 358 357 356 354 350 344 342 341 336 329 324 320 321 324 326 327 325 324
206 208 206 208 211 216 228 187 154 145 134 128 122 115 109 98 90 80 75 71 63 57 49 44 38 32 33 32 28 26 21 21 24 21 18 17 18 15 13 18 20 13 10 7 3 359 358 356 354 350 344 341 339 334 328 320 309 315 320 321 322 321 319
204 211 204 195 206 214 194 158 144 140 133 127 125 121 113 102 94 86 79 76 69 61 50 44 43 33 32 30 27 25 22 22 24 20 17 18 20 18 14 15 17 13 10 7 2 360 359 356 352 348 343 339 336 332 328 320 305 309 317 318 317 317 317
202 209 202 185 194 190 157 149 142 138 135 131 128 121 113 107 98 91 86 82 75 66 54 46 43 37 33 30 25 25 21 20 21 18 16 18 19 19 15 14 14 11 9 7 3 1 359 355 350 345 342 337 333 332 328 321 314 312 315 317 317 317 319
200 207 205 182 174 162 151 149 144 139 135 131 129 122 115 110 102 98 94 86 77 68 58 48 43 39 36 31 27 25 21 19 19 16 15 16 17 16 13 12 12 9 8 8 4 2 358 353 348 341 338 336 331 329 327 324 321 316 313 317 322 322 323
205 210 203 173 161 156 151 149 144 141 137 133 130 124 118 113 107 104 99 90 80 67 57 52 46 39 33 29 27 24 21 19 17 15 14 13 12 12 9 8 8 6 8 9 5 360 355 350 345 340 335 333 330 326 326 326 324 316 312 318 325 325 324
216 215 186 163 158 153 148 146 144 142 140 135 131 126 121 118 113 109 103 93 82 70 59 53 47 40 33 29 25 21 20 18 15 14 11 9 8 7 5 4 3 2 7 9 3 356 351 346 344 341 335 332 328 325 326 326 322 316 314 316 319 320 320
224 212 171 158 156 150 146 145 145 143 141 137 132 129 126 121 118 114 106 96 85 76 63 49 42 35 27 24 23 21 19 15 13 12 8 5 5 3 2 1 358 359 7 7 358 351 348 343 342 340 335 331 328 325 325 323 320 316 314 312 314 317 322
217 190 163 156 152 149 148 147 146 143 141 138 133 132 128 123 121 113 105 98 87 77 70 61 59 46 31 24 20 18 17 14 11 8 4 3 2 360 359 358 355 357 4 1 351 347 346 343 340 338 335 331 327 325 324 321 320 318 315 315 317 321 325
202 172 156 152 151 151 150 148 146 143 142 138 135 134 129 125 124 115 108 102 92 82 80 86 98 88 60 40 25 16 12 11 9 6 2 0 360 358 358 356 353 355 356 352 346 346 346 343 340 336 333 330 326 324 322 320 320 318 317 319 321 322 324
176 160 154 152 153 153 151 151 148 144 141 138 136 136 134 132 130 120 113 109 106 108 100 78 72 71 61 59 59 36 15 6 5 3 360 359 358 356 356 354 351 350 349 348 350 349 347 345 342 336 332 330 326 321 318 316 317 317 319 320 319 320 321
157 155 154 153 156 156 154 152 148 143 141 138 138 139 138 137 135 127 120 115 118 130 83 76 63 54 45 42 54 45 23 7 0 358 357 357 356 354 355 354 349 346 346 349 354 350 341 339 340 336 331 329 325 320 315 312 310 313 318 318 317 320 319
157 155 155 156 158 157 154 152 147 144 141 140 141 142 141 141 138 134 126 123 136 73 68 67 53 45 39 33 28 34 49 21 357 353 356 354 353 353 354 352 347 344 344 350 353 343 330 333 339 339 335 332 328 321 315 310 308 312 316 316 315 318 320
163 162 163 162 160 157 155 152 148 145 145 145 145 145 146 144 141 138 133 137 173 169 66 64 54 42 30 26 21 25 58 30 357 347 351 350 349 349 347 348 349 344 342 348 345 331 327 334 339 341 341 340 336 327 319 315 315 316 315 314 316 320 322
165 167 166 162 160 159 155 152 150 150 149 150 149 149 151 148 142 140 138 149 196 309 59 58 48 40 25 17 13 7 34 23 355 339 339 341 341 340 337 339 347 346 342 342 335 324 329 336 338 341 343 344 341 333 327 324 323 323 325 325 323 321 316
160 165 165 163 162 159 155 153 154 153 152 152 152 153 155 151 146 146 145 151 189 286 41 51 36 33 21 7 7 10 14 10 341 324 326 329 328 330 328 325 337 344 341 335 324 321 329 335 338 341 344 344 339 333 330 330 330 333 335 331 323 314 306
161 164 164 163 161 158 157 156 155 154 155 156 156 157 160 154 150 153 152 155 186 257 359 37 26 22 11 0 6 24 31 17 334 305 312 319 317 319 318 312 320 335 339 331 319 323 332 335 337 341 342 340 335 332 334 335 334 335 334 328 318 309 304
163 162 161 162 160 160 160 157 156 158 158 159 160 161 163 159 155 159 160 168 199 242 350 24 17 11 1 354 350 345 354 344 320 298 306 315 312 311 310 303 304 326 336 328 317 327 335 336 337 340 339 334 332 333 335 334 333 333 333 328 320 313 310
162 161 160 161 161 162 162 159 160 161 159 161 164 164 166 164 161 165 167 177 207 238 329 7 5 0 353 351 342 310 319 323 309 301 312 313 309 310 306 294 295 319 329 322 323 333 338 336 338 341 336 332 331 331 331 332 333 335 334 330 325 322 321
163 162 161 162 163 162 163 162 162 163 162 164 165 167 171 168 166 173 175 180 205 229 268 342 2 348 346 353 341 304 339 331 316 314 319 314 312 310 296 284 303 321 326 326 331 337 337 335 342 345 339 333 330 328 330 333 335 337 336 333 332 330 328
164 163 163 164 164 163 164 163 164 167 166 166 169 172 173 169 171 179 180 181 197 223 248 282 337 330 336 358 343 296 357 341 326 322 320 317 318 309 290 304 321 324 328 333 336 337 337 340 346 346 340 333 327 326 331 334 335 336 337 336 335 333 332
165 164 164 164 164 164 164 165 166 169 169 169 171 173 173 174 176 178 183 186 191 212 241 257 290 309 319 351 334 268 9 345 325 321 321 318 322 318 309 320 325 326 331 336 338 341 346 348 345 341 336 328 321 324 331 333 333 333 334 333 333 334 335
166 165 164 164 164 163 164 166 167 169 171 171 172 175 178 179 178 180 192 199 193 204 237 253 261 277 294 322 302 233 9 342 316 312 319 316 319 330 335 330 325 326 331 335 341 349 352 349 339 333 330 323 318 324 331 332 333 334 332 330 333 335 337
165 164 163 162 162 162 165 168 168 170 174 174 175 179 182 182 181 184 197 204 193 194 222 244 250 257 265 279 283 262 265 305 309 314 324 320 319 327 334 330 318 318 325 337 347 350 348 342 333 328 328 326 325 330 332 331 331 335 334 332 334 337 338
163 162 162 162 161 162 166 169 169 173 178 177 177 180 182 182 184 188 193 199 197 195 211 232 243 247 247 251 265 271 267 292 318 330 328 317 315 318 321 315 307 310 323 339 345 342 338 334 331 332 334 333 333 335 335 331 331 335 335 334 337 338 338
162 162 162 163 163 163 167 170 171 176 180 177 176 179 183 187 190 193 195 198 203 207 217 231 238 236 241 249 251 265 298 321 332 336 323 301 294 305 309 303 300 307 321 332 332 332 333 333 334 338 337 335 335 337 336 334 336 337 335 336 338 337 337
162 163 164 165 164 165 168 171 174 179 180 177 178 182 188 193 196 198 199 202 205 210 221 234 236 229 237 254 253 262 302 321 327 332 329 313 296 293 296 299 304 309 317 322 325 330 333 334 337 338 336 336 339 340 338 339 340 338 337 339 339 336 337